MST,Max TemperatureF,Mean TemperatureF,Min TemperatureF,Max Dew PointF,MeanDew PointF,Min DewpointF,Max Humidity, Mean Humidity, Min Humidity, Max Sea Level PressureIn, Mean Sea Level PressureIn, Min Sea Level PressureIn, Max VisibilityMiles, Mean VisibilityMiles, Min VisibilityMiles, Max Wind SpeedMPH, Mean Wind SpeedMPH, Max Gust SpeedMPH,PrecipitationIn, CloudCover, Events, WindDirDegrees
2013-6-1,81,56,30,9,3,-4,35,14,4,30.24,29.98,29.83,10,10,10,17,7,24,0.00,0,,70
2013-6-2,82,63,44,22,14,6,32,14,6,29.88,29.78,29.69,10,10,10,20,6,26,0.00,0,,211
2013-6-3,82,60,37,28,20,16,47,22,8,29.89,29.82,29.77,10,10,10,18,5,31,0.00,0,,239
2013-6-4,82,59,36,25,14,6,46,20,6,30.15,29.89,29.82,10,10,10,15,4,34,0.00,0,,235
2013-6-5,84,60,36,24,17,13,41,21,7,29.95,29.90,29.83,10,10,10,12,2,18,0.00,0,,330
2013-6-6,86,62,39,23,14,6,41,18,5,29.94,29.88,29.79,10,10,10,13,2,23,0.00,0,,21
2013-6-7,88,64,39,21,13,4,38,17,4,29.91,29.85,29.78,10,10,10,16,5,25,0.00,0,,41
2013-6-8,91,65,39,24,17,12,38,17,6,29.86,29.81,29.74,10,10,10,13,4,24,0.00,0,,324
2013-6-9,91,66,42,28,19,14,45,18,6,30.12,29.88,29.78,10,10,10,15,4,25,0.00,0,,217
2013-6-10,87,63,39,22,6,-9,36,14,4,29.92,29.86,29.78,10,10,10,28,8,39,0.00,0,,217
2013-6-11,86,67,48,27,18,10,38,17,7,29.99,29.89,29.80,10,10,10,17,9,29,0.00,0,,237
2013-6-12,88,64,41,25,19,15,40,19,8,30.24,29.97,29.88,10,10,10,18,4,32,0.00,0,,233
2013-6-13,87,66,42,36,23,13,39,22,8,29.94,29.89,29.81,10,10,10,28,8,41,0.00,0,,234
2013-6-14,84,60,36,23,16,3,44,20,5,29.94,29.88,29.78,10,10,10,20,5,31,0.00,0,,235
2013-6-15,84,65,46,32,24,20,36,19,11,30.14,29.90,29.83,10,10,10,24,11,34,0.00,2,,225
2013-6-16,84,62,39,27,18,11,47,20,7,30.00,29.95,29.88,10,10,10,20,5,31,0.00,0,,217
2013-6-17,84,60,37,22,5,-17,37,15,4,30.01,29.95,29.84,10,10,10,18,4,25,0.00,0,,221
2013-6-18,84,59,34,13,5,-2,25,12,4,29.94,29.86,29.72,10,10,10,24,7,40,0.00,0,,213
2013-6-19,82,64,43,19,9,4,26,12,5,29.80,29.72,29.69,10,10,10,28,11,39,0.00,0,,222
2013-6-20,82,57,32,17,10,5,38,17,6,29.88,29.81,29.75,10,10,10,28,7,40,0.00,0,,216
2013-6-21,82,58,35,19,13,8,40,18,7,29.92,29.86,29.76,10,10,9,21,6,30,0.00,0,,224
2013-6-22,82,58,33,20,15,10,40,18,8,29.90,29.84,29.77,10,10,10,16,5,31,0.00,0,,236
2013-6-23,82,58,34,19,13,9,40,17,6,29.87,29.78,29.69,10,10,10,18,6,31,0.00,0,,205
2013-6-24,77,60,41,31,19,12,40,21,10,29.91,29.79,29.73,10,10,10,26,9,43,0.00,0,,206
2013-6-25,82,60,37,26,21,12,38,21,11,29.99,29.94,29.87,10,10,10,17,6,26,0.00,0,,237
2013-6-26,89,65,41,25,21,18,43,21,8,30.07,30.01,29.93,10,10,10,16,4,24,0.00,0,,226
2013-6-27,91,68,44,36,23,14,47,21,6,30.10,30.06,29.98,10,10,10,10,4,17,0.00,0,,152
2013-6-28,93,70,48,34,24,18,35,18,7,30.33,30.01,29.92,10,10,10,15,3,48,0.00,0,Rain,195
2013-6-29,91,72,53,32,28,25,40,21,9,30.25,29.93,29.83,10,10,10,10,3,23,0.00,0,Thunderstorm,202
2013-6-30,97,74,50,34,28,19,45,22,6,29.94,29.88,29.83,10,10,10,20,3,28,0.00,0,,47